Date String (YYYY-MM-DD hh:mm:ss) UTC,Instrument flags,absolute air pressure of the measurement (hPa),sample flow rate (lpm),inlet stack bypass flow (lpm),air temperature of the measurement (°C),ambient temperature measured by the external sensor (°C),aerosol sample conditioner tube jacket temperature (°C),OPC LED temperature (°C),internal box temperature (°C),relative humidity of the measurement (%),span deviation,mass concentration of particles derived from Lorenz-Mie calculation of OPC scattering (μg/m³),mass concentration of particles derived from Lorenz-Mie calculation of OPC scattering (μg/m³),mass concentration of particles derived from Lorenz-Mie calculation of OPC scattering (μg/m³)
DateTimeUTC,F1_M11,P_M11,Q1_M11,Q2_M11,T1_M11,T2_M11,T3_M11,T4_M11,T5_M11,U1_M11,ZSPAN_M11,X2_M11,X0_M11,X1_M11
2024-05-30 07:00:00,SystemResetWarning,0827.3,5.00,000.00,031.1,030.3,000.0,039.4,032.8,013.6,0000.0,0003.40,0009.97,0002.10
2024-05-30 07:01:00,SystemResetWarning,0827.3,5.00,000.00,031.1,030.3,000.0,039.4,032.8,013.6,0000.0,0003.42,0010.65,0002.13
2024-05-30 07:02:00,SystemResetWarning,0827.3,5.00,000.00,031.1,030.3,000.0,039.4,032.8,013.6,0000.0,0003.46,0010.91,0002.17
2024-05-30 07:03:00,SystemResetWarning,0827.2,5.00,000.00,031.1,030.3,000.0,039.4,032.8,013.7,0000.0,0003.53,0011.11,0002.21
2024-05-30 07:04:00,SystemResetWarning,0827.2,4.99,000.00,031.1,030.3,000.0,039.4,032.8,014.0,0000.0,0003.57,0011.54,0002.24
2024-05-30 07:05:00,SystemResetWarning,0827.2,5.00,000.00,031.1,030.3,000.0,039.4,032.8,014.2,0000.0,0003.60,0012.70,0002.28
2024-05-30 07:06:00,SystemResetWarning,0827.2,4.99,000.00,031.1,030.3,000.0,039.4,032.8,014.5,0000.0,0003.66,0013.18,0002.33
2024-05-30 07:07:00,SystemResetWarning,0827.2,5.01,000.00,031.1,030.3,000.0,039.5,032.8,014.7,0000.0,0003.77,0014.69,0002.40
2024-05-30 07:08:00,SystemResetWarning,0827.2,5.01,000.00,031.1,030.3,000.0,039.5,032.8,014.7,0000.0,0003.86,0015.19,0002.44
2024-05-30 07:09:00,SystemResetWarning,0827.3,4.99,000.00,031.1,030.3,000.0,039.5,032.8,014.8,0000.0,0003.90,0015.76,0002.48
2024-05-30 07:10:00,SystemResetWarning,0827.4,4.99,000.00,031.1,030.3,000.0,039.5,032.8,014.9,0000.0,0003.94,0016.37,0002.52
2024-05-30 07:11:00,SystemResetWarning,0827.4,5.01,000.00,031.1,030.3,000.0,039.5,032.8,015.0,0000.0,0003.97,0016.26,0002.55
2024-05-30 07:12:00,SystemResetWarning,0827.4,5.00,000.00,031.1,030.3,000.0,039.5,032.8,015.1,0000.0,0004.02,0016.97,0002.58
2024-05-30 07:13:00,SystemResetWarning,0827.4,4.98,000.00,031.1,030.3,000.0,039.5,032.8,015.2,0000.0,0004.06,0017.60,0002.60
2024-05-30 07:14:00,SystemResetWarning,0827.4,5.01,000.00,031.1,030.3,000.0,039.5,032.8,015.4,0000.0,0004.07,0017.88,0002.62
2024-05-30 07:15:00,SystemResetWarning,0827.3,5.01,000.00,031.1,030.3,000.0,039.5,032.8,015.5,0000.0,0004.16,0018.72,0002.65
2024-05-30 07:16:00,SystemResetWarning,0827.4,4.99,000.00,031.1,030.3,000.0,039.5,032.8,015.6,0000.0,0004.18,0018.03,0002.69
2024-05-30 07:17:00,SystemResetWarning,0827.4,5.00,000.00,031.1,030.3,000.0,039.5,032.8,015.7,0000.0,0004.20,0017.84,0002.72
2024-05-30 07:18:00,SystemResetWarning,0827.4,5.02,000.00,031.1,030.3,000.0,039.5,032.8,015.8,0000.0,0004.18,0017.28,0002.70
2024-05-30 07:19:00,SystemResetWarning,0827.4,4.99,000.00,031.1,030.3,000.0,039.5,032.8,015.9,0000.0,0004.13,0017.57,0002.71
2024-05-30 07:20:00,SystemResetWarning,0827.4,4.99,000.00,031.1,030.3,000.0,039.5,032.8,015.9,0000.0,0004.07,0017.29,0002.73
2024-05-30 07:21:00,SystemResetWarning,0827.4,5.00,000.00,031.1,030.3,000.0,039.5,032.8,015.9,0000.0,0004.09,0016.62,0002.74
2024-05-30 07:22:00,SystemResetWarning,0827.4,5.01,000.00,031.1,030.3,000.0,039.5,032.8,015.9,0000.0,0004.09,0016.14,0002.76
2024-05-30 07:23:00,SystemResetWarning,0827.4,5.01,000.00,031.1,030.3,000.0,039.5,032.8,016.0,0000.0,0004.13,0016.11,0002.79
2024-05-30 07:24:00,SystemResetWarning,0827.4,5.01,000.00,031.1,030.3,000.0,039.5,032.8,016.0,0000.0,0004.13,0016.83,0002.82
2024-05-30 07:25:00,SystemResetWarning,0827.4,5.00,000.00,031.1,030.3,000.0,039.5,032.8,016.1,0000.0,0004.08,0016.53,0002.84
2024-05-30 07:26:00,SystemResetWarning,0827.5,5.00,000.00,031.1,030.3,000.0,039.5,032.8,016.1,0000.0,0004.00,0016.45,0002.85
2024-05-30 07:27:00,SystemResetWarning,0827.5,5.00,000.00,031.1,030.3,000.0,039.5,032.8,016.2,0000.0,0004.01,0016.37,0002.86
2024-05-30 07:28:00,SystemResetWarning,0827.4,5.00,000.00,031.1,030.3,000.0,039.6,032.8,016.2,0000.0,0004.01,0016.71,0002.87
2024-05-30 07:29:00,SystemResetWarning,0827.4,4.99,000.00,031.1,030.3,000.0,039.5,032.8,016.2,0000.0,0004.04,0016.76,0002.90
2024-05-30 07:30:00,SystemResetWarning,0827.5,5.00,000.00,031.1,030.3,000.0,039.5,032.8,016.3,0000.0,0004.03,0016.14,0002.91
2024-05-30 07:31:00,SystemResetWarning,0827.4,5.00,000.00,031.1,030.3,000.0,039.5,032.8,016.2,0000.0,0004.03,0016.73,0002.92
2024-05-30 07:32:00,SystemResetWarning,0827.4,5.00,000.00,031.1,030.3,000.0,039.5,032.8,016.1,0000.0,0004.01,0016.54,0002.94
2024-05-30 07:33:00,SystemResetWarning,0827.4,5.01,000.00,031.1,030.3,000.0,039.5,032.8,016.1,0000.0,0004.02,0016.18,0002.94
2024-05-30 07:34:00,SystemResetWarning,0827.4,5.01,000.00,031.1,030.3,000.0,039.5,032.8,016.0,0000.0,0003.96,0015.29,0002.94
2024-05-30 07:35:00,SystemResetWarning,0827.4,5.00,000.00,031.1,030.3,000.0,039.5,032.8,016.0,0000.0,0003.93,0014.74,0002.93
2024-05-30 07:36:00,SystemResetWarning,0827.4,4.99,000.00,031.1,030.3,000.0,039.5,032.8,015.9,0000.0,0003.92,0014.96,0002.93
2024-05-30 07:37:00,SystemResetWarning,0827.4,5.00,000.00,031.1,030.3,000.0,039.5,032.8,015.5,0000.0,0003.91,0014.11,0002.94
2024-05-30 07:38:00,SystemResetWarning,0827.4,5.00,000.00,031.1,030.3,000.0,039.5,032.8,015.6,0000.0,0003.91,0013.70,0002.95
2024-05-30 07:39:00,SystemResetWarning,0827.4,5.00,000.00,031.1,030.3,000.0,039.5,032.8,015.6,0000.0,0003.94,0013.41,0002.96
2024-05-30 07:40:00,SystemResetWarning,0827.4,5.00,000.00,031.1,030.3,000.0,039.5,032.8,015.3,0000.0,0003.92,0012.73,0002.97
2024-05-30 07:41:00,SystemResetWarning,0827.4,4.99,000.00,031.1,030.3,000.0,039.5,032.8,014.8,0000.0,0003.94,0013.09,0002.96
2024-05-30 07:42:00,SystemResetWarning,0827.3,5.00,000.00,031.1,030.3,000.0,039.5,032.8,014.9,0000.0,0003.97,0012.71,0002.95
2024-05-30 07:43:00,SystemResetWarning,0827.3,5.00,000.00,031.1,030.3,000.0,039.5,032.8,014.6,0000.0,0004.00,0012.66,0002.94
2024-05-30 07:44:00,SystemResetWarning,0827.3,5.01,000.00,031.1,030.3,000.0,039.5,032.8,013.9,0000.0,0004.00,0012.76,0002.94
2024-05-30 07:45:00,SystemResetWarning,0827.2,5.01,000.00,031.1,030.3,000.0,039.5,032.8,014.1,0000.0,0004.05,0013.31,0002.93
2024-05-30 07:46:00,SystemResetWarning,0827.3,5.00,000.00,031.1,030.4,000.0,039.6,032.9,014.6,0000.0,0004.06,0012.27,0002.92
2024-05-30 07:47:00,SystemResetWarning,0827.2,4.99,000.00,031.2,030.4,000.0,039.6,032.9,014.3,0000.0,0004.06,0012.40,0002.91
2024-05-30 07:48:00,SystemResetWarning,0827.3,4.99,000.00,031.2,030.4,000.0,039.6,032.9,014.0,0000.0,0004.06,0012.07,0002.89
2024-05-30 07:49:00,SystemResetWarning,0827.3,5.00,000.00,031.2,030.4,000.0,039.6,032.9,013.7,0000.0,0004.08,0012.47,0002.85
2024-05-30 07:50:00,SystemResetWarning,0827.3,5.01,000.00,031.2,030.4,000.0,039.6,032.9,014.0,0000.0,0004.03,0012.37,0002.80
2024-05-30 07:51:00,SystemResetWarning,0827.3,5.00,000.00,031.2,030.4,000.0,039.6,032.9,013.9,0000.0,0004.00,0013.18,0002.76
2024-05-30 07:52:00,SystemResetWarning,0827.3,5.01,000.00,031.2,030.4,000.0,039.6,032.9,014.2,0000.0,0004.02,0013.12,0002.73
2024-05-30 07:53:00,SystemResetWarning,0827.3,5.00,000.00,031.2,030.4,000.0,039.6,032.9,014.5,0000.0,0003.97,0011.94,0002.72
2024-05-30 07:54:00,SystemResetWarning,0827.3,5.00,000.00,031.2,030.4,000.0,039.6,032.9,014.5,0000.0,0003.96,0012.70,0002.71
2024-05-30 07:55:00,SystemResetWarning,0827.3,5.00,000.00,031.2,030.4,000.0,039.6,032.9,014.6,0000.0,0003.95,0012.67,0002.72
2024-05-30 07:56:00,SystemResetWarning,0827.4,5.00,000.00,031.2,030.4,000.0,039.6,032.9,014.7,0000.0,0003.91,0012.14,0002.71
2024-05-30 07:57:00,SystemResetWarning,0827.4,5.00,000.00,031.2,030.4,000.0,039.6,032.9,014.9,0000.0,0003.98,0012.62,0002.72
2024-05-30 07:58:00,SystemResetWarning,0827.4,4.99,000.00,031.2,030.4,000.0,039.6,032.9,014.8,0000.0,0004.05,0013.31,0002.72
2024-05-30 07:59:00,SystemResetWarning,0827.4,5.00,000.00,031.2,030.4,000.0,039.6,032.9,014.6,0000.0,0004.05,0013.40,0002.71
